DateTimeUTC,F1_A11,F1_S11,BsB_S11,BsG_S11,BsR_S11,BbsB_S11,BbsG_S11,BbsR_S11,BaB_A11,BaG_A11,BaR_A11,Tu_S11,T_S11,Uu_S11,U_S11,P_S11,T1_A11
2021-08-13T01:00:00Z,00040200,20000000,,,,,,,-000.04,-000.03,0000.11,18.5,25.1,07.2,04.8,0676.6,31.0
2021-08-13T01:01:00Z,00040200,20000000,,,,,,,-000.08,-000.25,-000.04,18.5,25.2,07.2,04.8,0676.6,31.0
2021-08-13T01:02:00Z,00040200,20000000,,,,,,,-000.04,0000.12,0000.20,18.5,25.2,07.2,04.8,0676.6,31.0
2021-08-13T01:03:00Z,00040200,60000000,,,,,,,0000.97,0000.74,0000.40,18.5,25.2,07.2,04.8,0676.6,31.0
2021-08-13T01:04:00Z,00040200,40000000,0005.46,0005.01,0003.25,0000.38,0000.67,0000.39,0000.97,0000.77,0000.87,18.7,25.0,07.3,05.0,0677.5,31.0
2021-08-13T01:05:00Z,00040200,00000000,0006.46,0004.82,0003.51,0001.22,0000.53,0000.25,0001.34,0001.44,0000.79,18.7,25.0,07.4,05.0,0677.5,31.0
2021-08-13T01:06:00Z,00040200,00000000,0004.54,0005.27,0003.34,0000.76,0000.49,0000.50,0000.77,0000.79,0000.56,18.7,24.9,07.3,05.0,0677.6,31.0
2021-08-13T01:07:00Z,00040200,00000000,0005.83,0005.14,0003.42,0001.24,0000.46,0000.93,0001.21,0000.90,0001.19,18.6,24.9,07.3,05.0,0677.5,31.0
2021-08-13T01:08:00Z,00040200,00000000,0006.91,0004.56,0003.40,0000.44,0000.42,0000.56,0000.90,0000.78,0000.60,18.6,24.9,07.4,05.0,0677.5,31.0
2021-08-13T01:09:00Z,00040200,00000000,0006.34,0004.89,0003.44,0001.11,0000.76,0000.64,0001.17,0001.22,0000.69,18.5,24.9,07.5,05.1,0677.5,31.0
2021-08-13T01:10:00Z,00040200,00000000,0005.54,0005.16,0003.69,0001.47,0000.47,0000.38,0000.80,0000.89,0000.82,18.5,24.8,07.5,05.1,0677.5,31.0
2021-08-13T01:11:00Z,00040200,00000000,0006.02,0004.90,0003.38,0001.51,0000.47,0000.54,0001.26,0001.02,0000.99,18.5,24.8,07.5,05.1,0677.5,31.0
2021-08-13T01:12:00Z,00040200,00000000,0005.79,0004.83,0003.45,0000.98,0000.43,0000.53,0001.02,0001.25,0000.71,18.5,24.8,07.5,05.1,0677.5,31.0
2021-08-13T01:13:00Z,00040200,00000000,0006.16,0004.44,0003.28,0000.58,0000.41,0000.59,0001.36,0001.00,0001.01,18.5,24.8,07.5,05.1,0677.5,31.0
2021-08-13T01:14:00Z,00040200,00000000,0006.28,0004.93,0003.17,0001.68,0000.40,0000.58,0000.96,0000.97,0000.74,18.6,24.8,07.4,05.1,0677.6,31.0
2021-08-13T01:15:00Z,00040200,00000000,0006.03,0004.82,0003.48,0001.11,0000.65,0000.59,0001.38,0001.15,0001.00,18.7,24.9,07.4,05.1,0677.5,31.0
2021-08-13T01:16:00Z,00040200,00000000,0005.44,0004.43,0003.27,0001.22,0000.71,0000.24,0000.92,0000.89,0000.76,18.7,24.9,07.3,05.0,0677.5,31.0
2021-08-13T01:17:00Z,00040200,00000000,0007.27,0004.51,0003.23,0000.98,0000.31,0000.76,0000.47,0000.34,0000.43,18.8,24.9,07.3,05.0,0677.5,31.0
2021-08-13T01:18:00Z,00040200,00000000,0005.60,0004.84,0003.49,0001.03,0000.36,0000.30,0001.16,0001.30,0000.54,18.7,24.9,07.3,05.0,0677.5,31.0
2021-08-13T01:19:00Z,00040200,00000000,0006.11,0004.83,0003.27,0000.95,0000.78,0000.70,0001.33,0001.01,0000.86,18.7,24.9,07.3,05.0,0677.5,31.0
2021-08-13T01:20:00Z,00040200,00000000,0005.67,0005.16,0004.01,0000.69,0000.54,0000.75,0000.95,0000.93,0000.62,18.7,24.9,07.4,05.1,0677.5,31.0
2021-08-13T01:21:00Z,00040200,00000000,0005.91,0005.22,0003.61,0000.86,0000.70,0000.58,0000.90,0000.55,0001.13,18.7,24.9,07.3,05.0,0677.6,31.0
2021-08-13T01:22:00Z,00040200,00000000,0005.69,0005.35,0003.53,0000.89,0000.74,0000.44,0000.88,0001.00,0000.53,18.7,24.9,07.2,04.9,0677.6,31.0
2021-08-13T01:23:00Z,00040200,00000000,0006.33,0004.78,0003.45,0000.79,0000.58,0000.42,0000.90,0001.23,0001.03,18.6,24.8,07.3,05.0,0677.6,31.0
2021-08-13T01:24:00Z,00040200,00000000,0005.22,0004.95,0003.42,0001.48,0000.40,0000.41,0001.30,0000.90,0000.80,18.6,24.8,07.4,05.1,0677.5,31.0
2021-08-13T01:25:00Z,00040200,00000000,0004.80,0004.58,0002.96,0001.06,0000.60,0000.60,0001.03,0000.80,0000.52,18.6,24.8,07.4,05.0,0677.5,31.0
2021-08-13T01:26:00Z,00040200,00000000,0005.55,0004.11,0003.03,0001.10,0000.71,0000.43,0001.04,0001.25,0000.95,18.5,24.8,07.3,05.0,0677.5,31.0
2021-08-13T01:27:00Z,00040200,00000000,0004.89,0003.75,0002.52,0000.99,0000.37,0000.29,0001.04,0000.91,0001.01,18.5,24.8,07.3,05.0,0677.5,31.0
2021-08-13T01:28:00Z,00040200,00000000,0005.67,0004.45,0002.63,0001.15,0000.61,0000.34,0001.00,0000.92,0000.25,18.6,24.8,07.3,05.0,0677.5,31.0
2021-08-13T01:29:00Z,00040200,00000000,0005.68,0004.26,0003.00,0000.59,0000.66,0000.38,0001.14,0000.89,0001.19,18.6,24.8,07.2,04.9,0677.5,31.0
2021-08-13T01:30:00Z,00040200,00000000,0005.08,0004.53,0002.86,0000.79,0000.69,0000.58,0000.86,0000.83,0000.65,18.7,24.9,07.2,05.0,0677.5,31.0
2021-08-13T01:31:00Z,00040200,00000000,0005.69,0004.22,0002.91,0001.14,0000.51,0000.46,0000.78,0000.85,0000.84,18.8,24.9,07.2,04.9,0677.5,31.0
2021-08-13T01:32:00Z,00040200,00000000,0004.99,0003.99,0002.92,0000.87,0000.54,0000.44,0000.75,0000.83,0000.29,18.9,25.0,07.1,04.9,0677.5,31.0
2021-08-13T01:33:00Z,00040200,00000000,0004.71,0004.77,0002.92,0001.10,0000.79,0000.24,0001.33,0000.93,0001.00,18.9,25.0,07.1,04.9,0677.5,31.0
2021-08-13T01:34:00Z,00040200,00000000,0005.40,0004.24,0003.13,0001.37,0000.32,0000.65,0000.70,0000.72,0000.49,18.9,25.0,07.1,04.9,0677.6,31.0
2021-08-13T01:35:00Z,00040200,00000000,0004.99,0003.70,0002.80,0001.53,0000.38,0000.50,0000.77,0000.63,0000.57,18.9,25.0,07.2,05.0,0677.6,31.0
2021-08-13T01:36:00Z,00040200,00000000,0005.53,0004.28,0002.85,0001.00,0000.57,0000.46,0001.10,0000.96,0000.68,18.8,24.9,07.1,04.9,0677.6,31.0
2021-08-13T01:37:00Z,00040200,00000000,0004.90,0003.88,0003.02,0001.27,0000.42,0000.42,0000.39,0000.74,0000.73,18.8,24.9,07.1,04.8,0677.6,31.0
2021-08-13T01:38:00Z,00040200,00000000,0004.60,0004.44,0002.82,0001.23,0000.44,0000.40,0001.15,0000.60,0000.04,18.7,24.9,07.0,04.8,0677.6,31.0
2021-08-13T01:39:00Z,00040200,00000000,0005.16,0004.09,0003.37,0000.40,0000.20,0000.90,0000.43,0000.48,0001.05,18.7,24.9,07.1,04.8,0677.6,31.0
2021-08-13T01:40:00Z,00040200,00000000,0005.80,0004.05,0002.70,0000.51,0000.24,0000.52,0000.96,0001.44,0000.60,18.7,24.9,07.1,04.9,0677.5,31.0
2021-08-13T01:41:00Z,00040200,00000000,0004.86,0003.97,0002.73,0000.75,0000.28,0000.50,0001.28,0000.91,0000.67,18.7,24.9,07.0,04.8,0677.5,31.0
2021-08-13T01:42:00Z,00040200,00000000,0004.09,0004.19,0003.19,0001.26,0000.18,0000.21,0000.84,0000.90,0000.70,18.6,24.9,07.0,04.8,0677.5,31.0
2021-08-13T01:43:00Z,00040200,00000000,0005.22,0004.01,0002.34,0000.32,0000.15,0000.13,0000.93,0000.64,0000.92,18.7,24.9,07.1,04.8,0677.5,31.0
2021-08-13T01:44:00Z,00040200,00000000,0004.89,0003.79,0002.85,0000.61,0000.31,0000.69,0000.79,0001.05,0000.44,18.8,24.9,07.0,04.8,0677.5,31.0
2021-08-13T01:45:00Z,00040200,00000000,0004.35,0003.73,0002.67,0000.52,0000.77,0000.18,0000.83,0000.69,0000.34,18.8,24.9,06.9,04.8,0677.5,31.0
2021-08-13T01:46:00Z,00040200,00000000,0004.95,0004.13,0001.97,0001.00,0000.42,0000.63,0000.58,0000.52,0000.79,18.8,25.0,06.9,04.8,0677.4,31.0
2021-08-13T01:47:00Z,00040200,00000000,0005.83,0003.67,0002.46,0000.29,0000.55,0000.37,0000.77,0001.03,0000.95,18.8,25.0,06.9,04.8,0677.5,31.0
2021-08-13T01:48:00Z,00040200,00000000,0004.26,0003.53,0002.70,0000.46,0000.54,0000.49,0001.05,0000.60,0000.25,18.8,25.0,07.0,04.8,0677.5,31.0
2021-08-13T01:49:00Z,00040200,00000000,0004.47,0003.68,0002.35,0000.80,0000.15,0000.49,0000.59,0000.35,0000.44,18.8,24.9,06.9,04.7,0677.5,31.0
2021-08-13T01:50:00Z,00040200,00000000,0005.29,0003.60,0002.61,0000.85,0000.58,0000.65,0001.11,0000.90,0000.77,18.7,24.9,06.9,04.7,0677.5,31.0
2021-08-13T01:51:00Z,00040200,00000000,0004.66,0003.60,0002.40,0000.46,0000.50,0000.34,0000.41,0000.86,0000.45,18.7,24.9,06.9,04.7,0677.5,31.0
2021-08-13T01:52:00Z,00040200,00000000,0004.09,0003.17,0002.35,0000.32,0000.39,0000.19,0001.09,0000.72,0000.87,18.6,24.9,06.7,04.6,0677.5,31.0
2021-08-13T01:53:00Z,00040200,00000000,0003.97,0003.28,0002.62,0001.03,0000.33,0000.69,0000.66,0001.01,0000.55,18.6,24.8,06.9,04.7,0677.5,31.0
2021-08-13T01:54:00Z,00040200,00000000,0004.11,0003.48,0002.35,0000.77,0000.40,0000.33,0000.72,0000.36,0000.42,18.6,24.8,07.0,04.8,0677.5,31.0
2021-08-13T01:55:00Z,00040200,00000000,0004.17,0003.71,0002.07,0001.06,0000.39,0000.26,0000.78,0000.77,0000.62,18.6,24.8,06.9,04.7,0677.4,31.0
2021-08-13T01:56:00Z,00040200,00000000,0004.25,0003.36,0002.43,0000.68,0000.66,0000.49,0000.99,0000.98,0000.76,18.5,24.8,06.9,04.7,0677.4,31.0
2021-08-13T01:57:00Z,00040200,40000000,,,,,,,0000.49,0000.24,0000.39,18.6,24.8,06.7,04.6,0677.3,31.0
2021-08-13T01:58:00Z,00040200,60000000,,,,,,,-000.25,-000.13,-000.01,18.3,25.0,06.9,04.6,0676.4,31.0
2021-08-13T01:59:00Z,00040200,20000000,,,,,,,0000.16,0000.25,0000.12,18.3,25.1,07.0,04.6,0676.4,31.0
